TimeCST,TemperatureF,Dew PointF,Humidity,Sea Level PressureIn,VisibilityMPH,Wind Direction,Wind SpeedMPH,Gust SpeedMPH,PrecipitationIn,Events,Conditions,WindDirDegrees,DateUTC
12:15 AM,18.3,12.0,76,30.21,10.0,SSW,10.4,-,N/A,,Clear,210,2013-01-04 06:15:00
12:35 AM,18.5,12.2,76,30.20,10.0,SSW,10.4,-,N/A,,Clear,210,2013-01-04 06:35:00
12:55 AM,18.1,11.7,76,30.19,10.0,SSW,9.2,-,N/A,,Clear,210,2013-01-04 06:55:00
1:15 AM,19.2,12.6,75,30.19,10.0,SW,10.4,-,N/A,,Clear,220,2013-01-04 07:15:00
1:35 AM,19.2,12.2,74,30.19,10.0,SSW,10.4,-,N/A,,Clear,210,2013-01-04 07:35:00
1:55 AM,18.5,11.5,74,30.18,10.0,SSW,10.4,-,N/A,,Clear,210,2013-01-04 07:55:00
2:15 AM,18.3,11.1,73,30.18,10.0,SSW,6.9,-,N/A,,Clear,200,2013-01-04 08:15:00
2:35 AM,17.6,10.9,75,30.19,10.0,South,5.8,-,N/A,,Clear,180,2013-01-04 08:35:00
2:55 AM,18.5,11.7,75,30.19,10.0,South,6.9,-,N/A,,Clear,190,2013-01-04 08:55:00
3:15 AM,18.3,10.9,73,30.18,10.0,South,5.8,-,N/A,,Clear,180,2013-01-04 09:15:00
5:55 AM,17.6,10.9,75,30.15,10.0,SSW,8.1,-,N/A,,Clear,200,2013-01-04 11:55:00
6:15 AM,16.2,9.7,76,30.15,10.0,SSW,8.1,-,N/A,,Clear,200,2013-01-04 12:15:00
6:35 AM,16.0,9.3,75,30.16,10.0,Calm,Calm,-,N/A,,Clear,0,2013-01-04 12:35:00
6:55 AM,14.0,7.7,76,30.16,10.0,SW,5.8,-,N/A,,Clear,220,2013-01-04 12:55:00
7:15 AM,15.3,9.0,76,30.16,10.0,SSW,6.9,-,N/A,,Clear,210,2013-01-04 13:15:00
7:35 AM,15.1,9.1,77,30.16,10.0,SSW,5.8,-,N/A,,Clear,200,2013-01-04 13:35:00
7:55 AM,14.7,7.9,74,30.15,10.0,SSW,8.1,-,N/A,,Clear,200,2013-01-04 13:55:00
8:15 AM,14.9,9.0,77,30.15,10.0,SSW,3.5,-,N/A,,Clear,210,2013-01-04 14:15:00
8:35 AM,14.5,8.2,76,30.15,10.0,SSW,8.1,-,N/A,,Clear,200,2013-01-04 14:35:00
8:55 AM,17.1,10.2,75,30.15,10.0,SSW,8.1,-,N/A,,Clear,210,2013-01-04 14:55:00
9:15 AM,19.2,10.8,70,30.16,10.0,SW,6.9,-,N/A,,Clear,230,2013-01-04 15:15:00
9:35 AM,20.1,10.9,68,30.16,10.0,SW,9.2,-,N/A,,Clear,230,2013-01-04 15:35:00
9:55 AM,20.8,11.1,66,30.17,10.0,SW,10.4,-,N/A,,Clear,220,2013-01-04 15:55:00
10:15 AM,21.7,11.3,64,30.17,10.0,SW,10.4,-,N/A,,Clear,220,2013-01-04 16:15:00
10:35 AM,23.2,11.5,61,30.17,10.0,SW,10.4,-,N/A,,Clear,230,2013-01-04 16:35:00
10:55 AM,24.1,11.3,58,30.17,10.0,WSW,9.2,-,N/A,,Clear,240,2013-01-04 16:55:00
11:15 AM,24.8,11.3,57,30.17,10.0,WSW,9.2,-,N/A,,Clear,240,2013-01-04 17:15:00
11:35 AM,25.5,11.3,55,30.16,10.0,WSW,10.4,-,N/A,,Clear,240,2013-01-04 17:35:00
11:55 AM,26.6,12.7,56,30.16,10.0,SW,9.2,-,N/A,,Clear,220,2013-01-04 17:55:00
12:15 PM,27.1,12.0,53,30.15,10.0,SW,10.4,-,N/A,,Clear,230,2013-01-04 18:15:00
12:35 PM,28.0,12.6,52,30.14,10.0,SW,8.1,-,N/A,,Clear,220,2013-01-04 18:35:00
12:55 PM,28.8,13.5,53,30.15,10.0,Calm,Calm,-,N/A,,Clear,0,2013-01-04 18:55:00
1:15 PM,29.3,12.2,49,30.15,10.0,WNW,4.6,-,N/A,,Clear,290,2013-01-04 19:15:00
1:35 PM,29.1,13.6,52,30.15,10.0,WSW,5.8,-,N/A,,Clear,240,2013-01-04 19:35:00
1:55 PM,29.1,13.5,52,30.14,10.0,SW,3.5,-,N/A,,Clear,220,2013-01-04 19:55:00
2:15 PM,29.3,13.8,53,30.14,10.0,WSW,4.6,-,N/A,,Clear,240,2013-01-04 20:15:00
2:35 PM,28.9,14.5,55,30.14,10.0,SW,6.9,-,N/A,,Clear,220,2013-01-04 20:35:00
2:55 PM,28.6,14.2,55,30.14,10.0,SSW,6.9,-,N/A,,Clear,210,2013-01-04 20:55:00
3:15 PM,28.9,13.3,52,30.14,10.0,Calm,Calm,-,N/A,,Clear,0,2013-01-04 21:15:00
3:35 PM,29.1,14.0,53,30.14,10.0,West,3.5,-,N/A,,Clear,260,2013-01-04 21:35:00
3:55 PM,28.2,14.4,56,30.14,10.0,West,4.6,-,N/A,,Clear,260,2013-01-04 21:55:00
4:15 PM,27.9,14.0,56,30.14,10.0,WSW,4.6,-,N/A,,Clear,250,2013-01-04 22:15:00
4:35 PM,25.9,13.3,59,30.14,10.0,Calm,Calm,-,N/A,,Clear,0,2013-01-04 22:35:00
4:55 PM,23.7,12.9,63,30.14,10.0,WSW,3.5,-,N/A,,Clear,250,2013-01-04 22:55:00
5:15 PM,23.0,13.3,66,30.14,10.0,Calm,Calm,-,N/A,,Clear,0,2013-01-04 23:15:00
5:35 PM,23.0,13.3,66,30.15,10.0,Calm,Calm,-,N/A,,Clear,0,2013-01-04 23:35:00
5:55 PM,21.4,12.7,69,30.14,10.0,South,3.5,-,N/A,,Clear,190,2013-01-04 23:55:00
6:15 PM,20.8,11.8,68,30.14,10.0,South,4.6,-,N/A,,Clear,170,2013-01-05 00:15:00
6:35 PM,18.9,10.2,69,30.14,10.0,Calm,Calm,-,N/A,,Clear,0,2013-01-05 00:35:00
6:55 PM,16.2,7.9,70,30.14,10.0,South,4.6,-,N/A,,Clear,180,2013-01-05 00:55:00
7:15 PM,18.7,11.3,73,30.14,10.0,Calm,Calm,-,N/A,,Clear,0,2013-01-05 01:15:00
7:35 PM,15.3,8.1,73,30.13,10.0,South,5.8,-,N/A,,Clear,190,2013-01-05 01:35:00
7:55 PM,15.3,8.2,74,30.13,10.0,South,4.6,-,N/A,,Clear,190,2013-01-05 01:55:00
8:15 PM,15.8,9.9,77,30.12,10.0,Calm,Calm,-,N/A,,Clear,0,2013-01-05 02:15:00
8:35 PM,16.0,9.5,76,30.12,10.0,Calm,Calm,-,N/A,,Clear,0,2013-01-05 02:35:00
8:55 PM,15.6,8.2,73,30.12,10.0,Calm,Calm,-,N/A,,Clear,0,2013-01-05 02:55:00
9:15 PM,15.6,8.4,73,30.11,10.0,Calm,Calm,-,N/A,,Clear,0,2013-01-05 03:15:00
9:35 PM,16.7,9.3,73,30.11,10.0,South,3.5,-,N/A,,Clear,170,2013-01-05 03:35:00
9:55 PM,13.8,6.8,74,30.11,10.0,South,4.6,-,N/A,,Clear,190,2013-01-05 03:55:00
10:15 PM,16.7,9.9,74,30.11,10.0,South,3.5,-,N/A,,Clear,180,2013-01-05 04:15:00
10:35 PM,17.2,10.4,75,30.10,10.0,South,3.5,-,N/A,,Clear,190,2013-01-05 04:35:00
10:55 PM,16.9,10.2,75,30.11,10.0,Calm,Calm,-,N/A,,Clear,0,2013-01-05 04:55:00
11:15 PM,18.5,12.0,76,30.10,10.0,Calm,Calm,-,N/A,,Clear,0,2013-01-05 05:15:00
11:35 PM,18.0,10.9,74,30.09,10.0,Calm,Calm,-,N/A,,Clear,0,2013-01-05 05:35:00
11:55 PM,15.6,9.5,77,30.08,10.0,Calm,Calm,-,N/A,,Clear,0,2013-01-05 05:55:00